Regional Weather Roundup
Issued by NWS

Home | Current Version | Previous Version | Text Only | Print | Product List | Glossary Off
Versions: 1 2 3 4 5 6 7 8 9 10 11 12 13 14 15 16 17 18 19 20 21 22 23 24 25 26 27 28 29 30 31 32 33 34 35 36 37 38 39 40 41 42 43 44 45 46 47 48 49 50

883
ASUS43 KOAX 250302
RWRNE

WEATHER ROUNDUP FOR NEBRASKA
NATIONAL WEATHER SERVICE OMAHA NE
900 PM CST FRI FEB 24 2017

NOTES: SATELLITE DATA IS BEING USED TO AUGMENT CLOUD COVER ABOVE
       12000 FEET.
       "FAIR" INDICATES FEW OR NO CLOUDS BELOW 12,000 FEET WITH NO
       SIGNIFICANT WEATHER AND/OR OBSTRUCTIONS TO VISIBILITY.

  * THESE STATIONS DO NOT REPORT WEATHER SUCH AS RAIN...SNOW OR FOG.

NEZ001>004-019>022-054>056-250400-
NEBRASKA PANHANDLE

CITY           SKY/WX    TMP DP  RH WIND       PRES   REMARKS
SCOTTSBLUFF    CLOUDY    13  10  88 N3        30.05S
ALLIANCE       CLOUDY     2  -2  83 W6        30.05S WCI  -9
CHADRON        CLOUDY     8   5  87 W3        30.07F
KIMBALL        CLOUDY    10  10  98 SW7       30.02S WCI  -1
SIDNEY         CLOUDY    10   7  87 W7        30.05F WCI  -1
$$

NEZ057>060-069>072-079>082-250400-
SOUTHWEST NEBRASKA

CITY           SKY/WX    TMP DP  RH WIND       PRES   REMARKS
NORTH PLATTE   CLOUDY    12   6  77 NW6       30.13R WCI   3
IMPERIAL       CLOUDY    21  15  78 NW7       30.11R WCI  12
LEXINGTON      CLOUDY    15  10  80 W8        30.13R WCI   4
MCCOOK         CLOUDY    19  12  74 W5        30.14R WCI  12
OGALLALA       CLOUDY    17  13  86 CALM      30.11S
$$

NEZ005>010-023>029-035>040-094-250400-
NORTH CENTRAL NEBRASKA

CITY           SKY/WX    TMP DP  RH WIND       PRES   REMARKS
VALENTINE      CLOUDY     8   3  80 W3        30.11R
AINSWORTH      CLOUDY    15  11  87 NW6       30.10R WCI   6
BROKEN BOW     CLEAR     17  11  77 NW13      30.10R WCI   4
O`NEILL        CLEAR     22  15  74 NW16      30.09R WCI   9
ORD            CLEAR     19  12  74 NW9       30.09R WCI   8
THEDFORD       CLOUDY    10   7  87 W7        30.11R WCI  -1
$$

NEZ041-046>049-061>064-073>077-083>087-250400-
SOUTH CENTRAL NEBRASKA

CITY           SKY/WX    TMP DP  RH WIND       PRES   REMARKS
GRAND ISLAND   CLEAR     19  14  81 NW13      30.10R WCI   6
AURORA         CLEAR     22  15  76 NW14      30.08R WCI   9
HASTINGS       CLEAR     19  13  77 NW12      30.11R WCI   7
HEBRON         PTCLDY    22  17  79 NW8       30.11R WCI  13
HOLDREGE       CLOUDY    19  13  77 NW8       30.12R WCI   9
KEARNEY *      CLEAR     18  10  73 NW10      30.12R WCI   6
YORK           CLOUDY    23  16  74 NW15      30.07R WCI  10
$$

NEZ011>018-030>034-042>045-250400-
NORTHEAST NEBRASKA

CITY           SKY/WX    TMP DP  RH WIND       PRES   REMARKS
NORFOLK        CLOUDY    24  16  71 NW16      30.03R WCI  11
ALBION         PTCLDY    25  15  65 NW22      30.06R WCI  10
BLAIR          CLOUDY    23  17  77 NW14      29.99R WCI  11
FREMONT        CLEAR     24  18  75 NW15      30.03R WCI  12
TEKAMAH        CLOUDY    20  13  74 NW10      30.01S WCI   9
WAYNE          PTCLDY    22  15  75 NW14      30.03R WCI   9
$$

NEZ050>053-065>068-078-088>093-250400-
SOUTHEAST NEBRASKA

CITY           SKY/WX    TMP DP  RH WIND       PRES   REMARKS
LINCOLN        PTCLDY    25  17  72 NW9       30.06R WCI  15
OMAHA EPPLEY   CLOUDY    24  16  71 NW15      30.00R WCI  11
BEATRICE       PTCLDY    26  19  77 NW16      30.06R WCI  13
FALLS CITY     PTCLDY    25  18  74 NW16      30.02R WCI  12
NEBRASKA CITY  PTCLDY    24  16  73 NW12      30.01R WCI  13
PLATTSMOUTH    PTCLDY    24  15  69 NW12      30.01R WCI  13
$$

NEZ044-045-051>053-067-250400-
OMAHA AREA

CITY           SKY/WX    TMP DP  RH WIND       PRES   REMARKS
OMAHA EPPLEY   CLOUDY    24  16  71 NW15      30.00R WCI  11
BLAIR          CLOUDY    23  17  77 NW14      29.99R WCI  11
FREMONT        CLEAR     24  18  75 NW15      30.03R WCI  12
MILLARD        CLEAR     28  19  69 NW10      30.02R WCI  18
OFFUTT AFB     PTCLDY    24  16  69 NW10      30.01R WCI  14
PLATTSMOUTH    PTCLDY    24  15  69 NW12      30.01R WCI  13
WAHOO          FAIR      24  17  73 NW14      30.03R WCI  12
$$




USA.gov is the U.S. government's official web portal to all federal, state and local government web resources and services.